Overview Statistics Trail Chart Weather Telemetry Raw packets
 

This is the latest recevied weather packets stored in our database for station/object AG1T-20. If no packets are shown the sender has not sent any weather packets the latest 10 day(s).

<< 5 6 7 8 9 10 11 >>
Time Temp. Humidity Pressure Rain* Wind** Luminosity Snow
1788514204 20.56° C 21% 1019.3 hPa 0 mm - 0 W/m² -
1788513605 20.56° C 21% 1019.1 hPa 0 mm - 0 W/m² -
1788513004 21.11° C 21% 1018.9 hPa 0 mm - 0 W/m² -
1788512404 21.67° C 20% 1018.5 hPa 0 mm - 0 W/m² -
1788511804 21.67° C 21% 1018.6 hPa 0 mm - 0 W/m² -
1788511204 20.56° C 22% 1018.9 hPa 0 mm - 0 W/m² -
1788510604 21.11° C 21% 1018.6 hPa 0 mm - 0 W/m² -
1788510004 21.67° C 22% 1018.5 hPa 0 mm - 0 W/m² -
1788509404 21.11° C 22% 1018.7 hPa 0 mm - 0 W/m² -
1788508804 13.33° C 47% 1023.2 hPa 0 mm - 0 W/m² -
1788508204 12.22° C 56% 1024 hPa 0 mm - 0 W/m² -
1788507605 13.89° C 53% 1023.1 hPa 0 mm - 0 W/m² -
1788507004 13.33° C 52% 1023.4 hPa 0 mm - 0 W/m² -
1788506405 12.78° C 53% 1023.6 hPa 0 mm - 0 W/m² -
1788505804 13.33° C 52% 1023.7 hPa 0 mm - 0 W/m² -
1788505204 12.78° C 54% 1023.7 hPa 0 mm - 0 W/m² -
1788504604 13.33° C 53% 1023.7 hPa 0 mm - 0 W/m² -
1788504004 13.89° C 51% 1023.3 hPa 0 mm - 0 W/m² -
1788503436 13.89° C 52% 1023.1 hPa 0 mm - 0 W/m² -
1788502804 13.33° C 54% 1023.3 hPa 0 mm - 0 W/m² -
1788502204 13.33° C 55% 1023.3 hPa 0 mm - 0 W/m² -
1788501604 13.89° C 55% 1023.1 hPa 0 mm - 0 W/m² -
1788501005 13.89° C 53% 1023.1 hPa 0 mm - 0 W/m² -
1788500404 13.89° C 54% 1023.2 hPa 0 mm - 0 W/m² -
1788499804 13.89° C 52% 1022.9 hPa 0 mm - 0 W/m² -

* Rain latest hour (hover to see other rain measurements)
** Current wind speed in m/s (hover to see current wind gust speed)